Volver al catálogo

CZ-6A DEB

ActivoPO
NORAD 60845·DEBRIS·🇨🇳 China

Lanzado Aug 6, 2024 desde Taiyuan Satellite Launch Center

Loading…

Próximos Pases (próximas 24 horas)

TLE

ActualizadoSource: Space-Track

Época: Sep 14, 2026, 07:13 UTC

1 60845U 24140HY  26257.30088358  .00000379  00000-0  74373-4 0  9998
2 60845  89.0312 262.7605 0121315 302.7914  56.1655 14.56159929110927

Sigue CZ-6A DEB en tiempo real con AllMySat

Download on the App Store